Home > Weather > Elmshorn > Past weeks

Flag for Germany Weather for the Past 2 Weeks in Elmshorn, Schleswig-Holstein, Germany

Now
43 °F

Passing clouds.


Feels Like: 34 °F
Forecast: 40 / 45 °F
Wind: 20 mph from South

Location: Hamburg-Fuhlsbuettel

Current Time: Feb 8, 2016 at 5:15:05 AM

Latest Report: Feb 8, 2016 at 4:20 AM


Visibility: N/A

Pressure: 29.33 "Hg

Humidity: 71%

Dew point: 34 °F

Location of ElmshornLocation

Historic Weather in Elmshorn — Graph

°F

Elmshorn Temperature Yesterday

Maximum temperature yesterday: 54 °F (at 12:20 PM)
Minimum temperature yesterday: 41 °F (at 3:20 AM)
Average temperature yesterday: 47 °F

High & Low Weather Summary for the Past Weeks

 TemperatureHumidityPressure
High54 °F (Feb 1, 8:20 PM)100% (Jan 24, 3:20 AM)30.42 "Hg (Jan 24, 3:20 AM)
Low34 °F (Jan 31, 1:50 AM)57% (Feb 2, 6:20 PM)29.36 "Hg (Feb 8, 3:50 AM)
Average45 °F85%29.88 "Hg
* Reported Jan 24 3:20 AM — Feb 8 3:50 AM, Elmshorn, Weather by CustomWeather, © 2016

Note: Actual official high and low records may vary slightly from our data, if they occured in-between our weather recording intervals... More about our weather records

Advertising

Elmshorn Weather History for the Previous 24 Hours

 ConditionsComfort  
Time TempWeatherWind HumidityBarometerVisibility
3:50 AM
Mon, Feb 8
43 °FClear.21 mph71%29.36 "Hg10 mi
3:20 AM43 °FClear.20 mph71%29.39 "Hg10 mi
2:50 AM43 °FClear.21 mph71%29.42 "Hg10 mi
2:20 AM45 °FClear.18 mph66%29.42 "Hg10 mi
1:50 AM43 °FClear.18 mph71%29.45 "Hg10 mi
1:20 AM45 °FClear.17 mph66%29.45 "Hg10 mi
12:50 AM45 °FClear.21 mph66%29.47 "Hg10 mi
12:20 AM45 °FClear.17 mph66%29.50 "Hg10 mi
11:50 PM
Sun, Feb 7
43 °FPassing clouds.15 mph71%29.50 "HgN/A
11:20 PM45 °FClear.16 mph66%29.50 "Hg10 mi
10:50 PM45 °FPassing clouds.16 mph71%29.53 "HgN/A
10:20 PM45 °FPassing clouds.16 mph71%29.53 "HgN/A
9:50 PM45 °FClear.15 mph71%29.53 "Hg10 mi
9:20 PM45 °FPassing clouds.17 mph71%29.50 "HgN/A
8:50 PM46 °FPassing clouds.20 mph66%29.50 "HgN/A
8:20 PM46 °FPassing clouds.18 mph71%29.50 "HgN/A
7:50 PM46 °FClear.13 mph71%29.50 "Hg10 mi
7:20 PM46 °FPassing clouds.15 mph71%29.50 "HgN/A
6:50 PM48 °FPassing clouds.18 mph66%29.50 "HgN/A
6:20 PM48 °FPassing clouds.17 mph66%29.50 "HgN/A
5:50 PM48 °FPartly cloudy.18 mph66%29.50 "HgN/A
5:20 PM48 °FPartly cloudy.18 mph71%29.50 "HgN/A
4:20 PM50 °FBroken clouds.17 mph71%29.47 "HgN/A
3:50 PM50 °FBroken clouds.15 mph71%29.47 "HgN/A
3:20 PM52 °FBroken clouds.21 mph67%29.47 "HgN/A
2:50 PM52 °FPartly sunny.18 mph72%29.45 "HgN/A
2:20 PM52 °FBroken clouds.21 mph67%29.45 "HgN/A
1:50 PM54 °FBroken clouds.20 mph67%29.42 "HgN/A
1:20 PM54 °FLight rain. Partly sunny.17 mph63%29.42 "HgN/A
12:50 PM54 °FPartly sunny.18 mph63%29.42 "HgN/A
12:20 PM54 °FPartly sunny.15 mph63%29.45 "HgN/A
11:50 AM52 °FSunny.15 mph67%29.45 "Hg10 mi
11:20 AM50 °FSunny.16 mph67%29.45 "Hg10 mi
10:50 AM50 °FSunny.14 mph67%29.45 "Hg10 mi
10:20 AM50 °FSunny.16 mph67%29.45 "Hg10 mi
9:50 AM50 °FSunny.14 mph67%29.45 "Hg10 mi
9:20 AM46 °FSunny.8 mph76%29.45 "Hg10 mi
8:50 AM46 °FPassing clouds.8 mph76%29.45 "HgN/A
8:20 AM41 °FSunny.10 mph87%29.47 "Hg10 mi
7:50 AM41 °FClear.10 mph87%29.47 "Hg10 mi
7:20 AM43 °FClear.10 mph81%29.45 "Hg10 mi
6:50 AM41 °FClear.9 mph87%29.47 "Hg10 mi
6:20 AM43 °FClear.12 mph81%29.47 "Hg10 mi
5:50 AM43 °FClear.12 mph81%29.47 "Hg10 mi
5:20 AM45 °FClear.13 mph76%29.50 "Hg10 mi
Weather by CustomWeather, © 2016

See weather overviewHow to use our weather pages